Flag for U.S.A. Weather past 2 weeks in Cheyenne, Wyoming, U.S.A.

Now
75 °F

Sunny.


Feels Like: 77 °F
Forecast: 57 / 86 °F
Wind: 9 mph from Southeast

Location: Cheyenne Airport

Current Time: Jul 31, 2015 at 8:36:41 PM

Latest Report: Jul 31, 2015 at 7:53 PM


Visibility: 10 mi

Pressure: 30.01 "Hg (24.24 "Hg at 1855m altitude)

Humidity: 39%

Dew point: 48 °F

Location of CheyenneLocation

Historic Weather in Cheyenne — Graph

°F

Cheyenne temperature yesterday

Maximum temperature yesterday: 84 °F (at 2:53 PM)
Minimum temperature yesterday: 54 °F (at 3:53 AM)
Average temperature yesterday: 70 °F

Past Weeks' High & Low Weather Summary

 TemperatureHumidityPressure
High91 °F (Jul 27, 2:53 PM)97% (Jul 21, 6:53 PM)30.19 "Hg (Jul 21, 6:53 PM)
Low47 °F (Jul 29, 5:53 AM)13% (Jul 26, 1:53 PM)29.59 "Hg (Jul 27, 5:53 PM)
Average69 °F47%29.92 "Hg
* Reported Jul 16 6:53 PM — Jul 31 6:53 PM, Cheyenne, Weather by CustomWeather, © 2015

Note: Actual official high and low records may vary slightly from our data, if they occured in-between our weather recording intervals... More about our weather records

Advertising

Cheyenne weather history for previous 24 hours

 ConditionsComfort  
Time TempWeatherWind HumidityBarometerVisibility
6:53 PM
Fri, Jul 31
78 °FSunny.8 mph35%30.03 "Hg10 mi
5:53 PM80 °FSunny.14 mph32%30.04 "Hg10 mi
4:53 PM80 °FSunny.10 mph34%30.05 "Hg10 mi
3:53 PM77 °FSunny.12 mph42%30.09 "Hg10 mi
2:53 PM72 °FScattered clouds.8 mph55%30.11 "Hg10 mi
1:53 PM71 °FThundershowers. Partly sunny.9 mph45%30.15 "Hg10 mi
12:53 PM84 °FSunny.18 mph30%30.08 "Hg10 mi
11:53 AM81 °FSunny.16 mph38%30.11 "Hg10 mi
10:53 AM80 °FPartly sunny.15 mph38%30.11 "Hg10 mi
9:53 AM80 °FSunny.10 mph38%30.11 "Hg10 mi
8:53 AM75 °FSunny.3 mph47%30.13 "Hg10 mi
7:53 AM68 °FSunny.5 mph61%30.13 "Hg10 mi
6:53 AM59 °FSunny.8 mph75%30.14 "Hg10 mi
5:53 AM55 °FClear.9 mph83%30.13 "Hg10 mi
4:53 AM55 °FClear.9 mph83%30.13 "Hg10 mi
3:53 AM55 °FClear.7 mph90%30.13 "Hg10 mi
2:53 AM57 °FClear.5 mph81%30.12 "Hg10 mi
1:53 AM59 °FClear.3 mph81%30.13 "Hg10 mi
12:53 AM61 °FClear.No wind67%30.14 "Hg10 mi
11:53 PM
Thu, Jul 30
61 °FClear.6 mph78%30.15 "Hg10 mi
10:53 PM65 °FClear.6 mph68%30.14 "Hg10 mi
9:53 PM65 °FClear.9 mph45%30.14 "Hg10 mi
8:53 PM69 °FSunny.6 mph36%30.11 "Hg10 mi
Weather by CustomWeather, © 2015

See weather overviewHow to use our weather pages